Back to catalog

FENGYUN 1C DEB

AliveSSO
NORAD 29961·DEBRIS·🇨🇳 China

Launched May 10, 1999 from Taiyuan Satellite Launch Center

Loading…

Next Passes (next 24 hours)

TLE

FreshSource: Space-Track

Epoch: Sep 14, 2026, 03:11 UTC

1 29961U 99025KK  26257.13272642  .00000181  00000-0  91804-4 0  9997
2 29961  98.9166 155.0600 0073629 227.5805 131.9131 14.26416714 22358

Track FENGYUN 1C DEB in real time with AllMySat

Download on the App Store